Preview of NWS' New Version of Forecast
This preview is not operational and should not be used for support decisions.

Regional Weather Roundup (RWR)

Issued by National Weather Service (NWS)

                            
000
ASUS43 KBIS 212102
RWRND 

NORTH DAKOTA REGIONAL WEATHER ROUNDUP
NATIONAL WEATHER SERVICE BISMARCK ND
300 PM CST THU FEB 21 2019

NOTE: "FAIR" INDICATES FEW OR NO CLOUDS BELOW 12,000 FEET WITH NO
SIGNIFICANT WEATHER AND/OR OBSTRUCTIONS TO VISIBILITY.


NDZ001>003-009>011-017-212200-
NORTHWEST NORTH DAKOTA
  
CITY           SKY/WX    TMP DP  RH WIND       PRES   REMARKS
WILLISTON      CLOUDY    11   2  67 NW8       30.14S WCI  -1          
MINOT          CLOUDY    11   4  73 NW9       30.12R HAZE    WCI  -2  
MINOT AFB      CLOUDY     8   2  75 NW6       30.11S WCI  -2          
$$
 
NDZ018>021-031>035-040>046-212200-
SOUTHWEST NORTH DAKOTA
  
CITY           SKY/WX    TMP DP  RH WIND       PRES   REMARKS
BISMARCK       PTSUNNY   17   8  67 W8        30.14S WCI   7          
DICKINSON      LGT SNOW  13   5  70 NW10      30.04F WCI   0          
GARRISON         N/A      9   3  77 W10       30.11S WCI  -5          
HETTINGER ARPT FAIR      11   5  77 NW12      30.07S WCI  -3          
$$
 
NDZ004>008-012>016-024-026-027-054-212200-
NORTHEAST NORTH DAKOTA
  
CITY           SKY/WX    TMP DP  RH WIND       PRES   REMARKS
GRAND FORKS    CLOUDY    17  10  74 NW3       30.17R                  
GRND FRKS AFB  CLOUDY    20  11  70 CALM      30.17R                  
DEVILS LAKE    FLURRIES  12   8  84 NW5       30.14R WCI   4          
$$
 
NDZ022-023-025-028>030-036>039-047>053-212200-
SOUTHEAST NORTH DAKOTA
  
CITY           SKY/WX    TMP DP  RH WIND       PRES   REMARKS
FARGO          PTSUNNY   20  14  77 W5        30.17S WCI  13          
JAMESTOWN      CLOUDY    16  11  80 W8        30.13R WCI   5          
$$